Tracking 20093 objects as of 15-Dec-2019
HD Live streaming from Space Station
objects crossing your sky now

FENGYUN 1C DEB

Track FENGYUN 1C DEB now!
10-day predictions


NORAD ID: 31327
Int'l Code: 1999-025BQF
Perigee: 552.9 km
Apogee: 801.8 km
Inclination: 99.0 °
Period: 98.2 minutes
Semi major axis: 7048 km
RCS: 0.0089 m2 (small)
Launch date: May 10, 1999
Source: People's Republic of China (PRC)
Launch site: Taiyaun Space Center, China (TSC)

Note: This is SATELLITE DEBRIS
aabbcc
Your satellite tracking list
Your tracking list is empty




NASA's NSSDC Master Catalog

Two Line Element Set (TLE):
1 31327U 99025BQF 19348.47321798 +.00000415 +00000-0 +68409-4 0  9998
2 31327 098.9606 069.9104 0176532 035.0284 326.2380 14.67138663677640
Source of the keplerian elements: AFSPC